• In Hungary
  • List of Countries
  • For 7 days
  • Water Temperature
  • Satellite Maps
  • Weather Map
  • News
  • Weather Widgets
  • user-avatar
    Login

    Hourly Weather Stepanakert

    Today, 24 September, Sunday

    Time Temperature Precipitation Wind Pressure Humidity
    00:00 +19°C° 0 mm 2 mps 694 mmHg 75%
    01:00 +19°C° 0 mm 2 mps 694 mmHg 75%
    02:00 +19°C° 0 mm 1 mps 694 mmHg 76%
    03:00 +19°C° 0 mm 1 mps 694 mmHg 78%
    04:00 +19°C° 0 mm 1 mps 694 mmHg 79%
    05:00 +19°C° 0 mm 1 mps 694 mmHg 80%
    06:00 +18°C° 0 mm 1 mps 694 mmHg 81%
    07:00 +20°C° 0 mm 1 mps 695 mmHg 74%
    08:00 +21°C° 0 mm 2 mps 695 mmHg 66%
    09:00 +23°C° 0 mm 2 mps 696 mmHg 59%
    10:00 +24°C° 0.1 mm 3 mps 696 mmHg 55%
    11:00 +25°C° 0.1 mm 3 mps 696 mmHg 51%
    12:00 +26°C° 0.1 mm 3 mps 696 mmHg 48%
    13:00 +26°C° 0.1 mm 3 mps 696 mmHg 48%
    14:00 +26°C° 0.1 mm 3 mps 696 mmHg 48%
    15:00 +26°C° 0.1 mm 3 mps 695 mmHg 48%
    16:00 +25°C° 0.1 mm 3 mps 695 mmHg 53%
    17:00 +24°C° 0.1 mm 3 mps 695 mmHg 58%
    18:00 +22°C° 0.1 mm 3 mps 695 mmHg 63%
    19:00 +21°C° 0.1 mm 2 mps 695 mmHg 67%
    20:00 +20°C° 0.1 mm 2 mps 696 mmHg 71%
    21:00 +19°C° 0.1 mm 2 mps 696 mmHg 76%
    22:00 +20°C° 0 mm 1 mps 696 mmHg 77%
    23:00 +19°C° 0 mm 1 mps 696 mmHg 79%

    Tomorrow, 25 September, Monday

    Time Temperature Precipitation Wind Pressure Humidity
    00:00 +19°C° 0 mm 1 mps 696 mmHg 81%
    01:00 +18°C° 0 mm 1 mps 696 mmHg 82%
    02:00 +18°C° 0 mm 1 mps 696 mmHg 83%
    03:00 +18°C° 0 mm 1 mps 696 mmHg 84%
    04:00 +18°C° 0 mm 1 mps 696 mmHg 84%
    05:00 +16°C° 0 mm 1 mps 696 mmHg 83%
    06:00 +16°C° 0 mm 1 mps 696 mmHg 83%
    07:00 +19°C° 0 mm 1 mps 696 mmHg 73%
    08:00 +21°C° 0 mm 1 mps 696 mmHg 63%
    09:00 +23°C° 0 mm 2 mps 697 mmHg 53%
    10:00 +24°C° 0 mm 2 mps 697 mmHg 49%
    11:00 +25°C° 0 mm 2 mps 697 mmHg 46%
    12:00 +26°C° 0 mm 3 mps 697 mmHg 42%
    13:00 +26°C° 0.1 mm 3 mps 696 mmHg 43%
    14:00 +26°C° 0.1 mm 3 mps 696 mmHg 43%
    15:00 +26°C° 0.1 mm 3 mps 696 mmHg 44%
    16:00 +25°C° 0.1 mm 3 mps 696 mmHg 49%
    17:00 +24°C° 0.1 mm 3 mps 696 mmHg 54%
    18:00 +22°C° 0.1 mm 3 mps 695 mmHg 58%
    19:00 +21°C° 0.1 mm 3 mps 696 mmHg 61%
    20:00 +20°C° 0.1 mm 3 mps 696 mmHg 63%
    21:00 +19°C° 0.1 mm 3 mps 696 mmHg 66%
    22:00 +19°C° 0 mm 3 mps 696 mmHg 67%
    23:00 +18°C° 0 mm 2 mps 696 mmHg 68%

    Day after tomorrow, 26 September, Tuesday

    Time Temperature Precipitation Wind Pressure Humidity
    00:00 +17°C° 0 mm 2 mps 696 mmHg 69%
    01:00 +17°C° 0 mm 2 mps 695 mmHg 70%
    02:00 +17°C° 0 mm 2 mps 695 mmHg 71%
    03:00 +16°C° 0 mm 1 mps 695 mmHg 71%
    04:00 +16°C° 0 mm 1 mps 695 mmHg 73%
    05:00 +15°C° 0 mm 1 mps 695 mmHg 74%
    06:00 +15°C° 0 mm 1 mps 695 mmHg 76%
    07:00 +17°C° 0 mm 2 mps 695 mmHg 70%
    08:00 +19°C° 0 mm 2 mps 695 mmHg 63%
    09:00 +20°C° 0 mm 3 mps 696 mmHg 57%
    10:00 +21°C° 0 mm 3 mps 695 mmHg 54%
    11:00 +22°C° 0 mm 3 mps 695 mmHg 51%
    12:00 +23°C° 0 mm 4 mps 695 mmHg 49%
    13:00 +23°C° 0 mm 4 mps 695 mmHg 50%
    14:00 +23°C° 0 mm 4 mps 694 mmHg 52%
    15:00 +23°C° 0 mm 4 mps 694 mmHg 53%
    16:00 +21°C° 0 mm 4 mps 694 mmHg 60%
    17:00 +20°C° 0 mm 4 mps 694 mmHg 67%
    18:00 +19°C° 0 mm 4 mps 694 mmHg 74%
    19:00 +18°C° 0 mm 4 mps 694 mmHg 76%
    20:00 +18°C° 0 mm 3 mps 694 mmHg 78%
    21:00 +17°C° 0 mm 3 mps 694 mmHg 80%
    22:00 +17°C° 0 mm 3 mps 694 mmHg 80%
    23:00 +17°C° 0 mm 3 mps 694 mmHg 80%

    27 September, Wednesday

    Time Temperature Precipitation Wind Pressure Humidity
    00:00 +16°C° 0 mm 3 mps 694 mmHg 81%
    01:00 +16°C° 0 mm 3 mps 694 mmHg 81%
    02:00 +16°C° 0 mm 2 mps 694 mmHg 81%
    03:00 +16°C° 0 mm 2 mps 694 mmHg 82%
    04:00 +16°C° 0 mm 2 mps 693 mmHg 82%
    05:00 +15°C° 0 mm 2 mps 693 mmHg 83%
    06:00 +15°C° 0 mm 2 mps 693 mmHg 83%
    07:00 +16°C° 0 mm 2 mps 694 mmHg 78%
    08:00 +17°C° 0 mm 2 mps 694 mmHg 73%
    09:00 +19°C° 0 mm 3 mps 694 mmHg 67%
    10:00 +19°C° 0 mm 3 mps 694 mmHg 67%
    11:00 +19°C° 0 mm 3 mps 693 mmHg 66%
    12:00 +19°C° 0 mm 3 mps 693 mmHg 65%
    13:00 +19°C° 0.1 mm 3 mps 693 mmHg 67%
    14:00 +19°C° 0.1 mm 3 mps 692 mmHg 69%
    15:00 +18°C° 0.1 mm 3 mps 692 mmHg 70%
    16:00 +18°C° 0.2 mm 3 mps 692 mmHg 74%
    17:00 +17°C° 0.2 mm 3 mps 692 mmHg 78%
    18:00 +16°C° 0.2 mm 2 mps 692 mmHg 82%
    19:00 +16°C° 0.1 mm 2 mps 693 mmHg 84%
    20:00 +16°C° 0.1 mm 2 mps 693 mmHg 86%
    21:00 +15°C° 0.1 mm 2 mps 693 mmHg 87%
    22:00 +15°C° 0.2 mm 2 mps 693 mmHg 88%
    23:00 +15°C° 0.2 mm 2 mps 693 mmHg 90%

    28 September, Thursday

    Time Temperature Precipitation Wind Pressure Humidity
    00:00 +15°C° 0.2 mm 2 mps 693 mmHg 91%
    01:00 +15°C° 0.2 mm 2 mps 693 mmHg 91%
    02:00 +15°C° 0.2 mm 2 mps 693 mmHg 92%
    03:00 +13°C° 0.2 mm 3 mps 694 mmHg 92%
    04:00 +13°C° 0.2 mm 3 mps 694 mmHg 91%
    05:00 +13°C° 0.2 mm 3 mps 694 mmHg 90%
    06:00 +13°C° 0.2 mm 4 mps 694 mmHg 90%
    07:00 +13°C° 0.1 mm 4 mps 694 mmHg 87%
    08:00 +13°C° 0.1 mm 4 mps 694 mmHg 84%
    09:00 +14°C° 0.1 mm 4 mps 695 mmHg 82%
    10:00 +14°C° 0.1 mm 4 mps 695 mmHg 79%
    11:00 +14°C° 0.1 mm 4 mps 695 mmHg 77%
    12:00 +15°C° 0.1 mm 4 mps 695 mmHg 74%
    13:00 +14°C° 0.1 mm 4 mps 695 mmHg 75%
    14:00 +14°C° 0.1 mm 4 mps 694 mmHg 77%
    15:00 +13°C° 0.1 mm 4 mps 694 mmHg 78%
    16:00 +13°C° 0 mm 3 mps 694 mmHg 80%
    17:00 +13°C° 0 mm 3 mps 695 mmHg 82%
    18:00 +12°C° 0 mm 3 mps 695 mmHg 84%
    19:00 +12°C° 0.1 mm 3 mps 695 mmHg 85%
    20:00 +12°C° 0.1 mm 3 mps 696 mmHg 86%
    21:00 +12°C° 0.1 mm 3 mps 696 mmHg 87%
    22:00 +12°C° 0.1 mm 3 mps 696 mmHg 87%
    23:00 +12°C° 0.1 mm 3 mps 696 mmHg 88%

    29 September, Friday

    Time Temperature Precipitation Wind Pressure Humidity
    00:00 +12°C° 0.1 mm 3 mps 696 mmHg 89%
    01:00 +13°C° 0.1 mm 2 mps 696 mmHg 89%
    02:00 +13°C° 0.1 mm 2 mps 696 mmHg 90%
    03:00 +12°C° 0.1 mm 2 mps 696 mmHg 90%
    04:00 +12°C° 0.1 mm 2 mps 696 mmHg 91%
    05:00 +12°C° 0.1 mm 2 mps 696 mmHg 91%
    06:00 +12°C° 0.1 mm 2 mps 696 mmHg 91%
    07:00 +13°C° 0 mm 2 mps 696 mmHg 88%
    08:00 +13°C° 0 mm 2 mps 696 mmHg 84%
    09:00 +14°C° 0 mm 2 mps 696 mmHg 81%
    10:00 +15°C° 0 mm 2 mps 696 mmHg 78%
    11:00 +14°C° 0 mm 3 mps 696 mmHg 74%
    12:00 +16°C° 0 mm 3 mps 696 mmHg 71%
    13:00 +16°C° 0 mm 3 mps 695 mmHg 69%
    14:00 +17°C° 0 mm 3 mps 695 mmHg 68%
    15:00 +17°C° 0 mm 3 mps 695 mmHg 66%
    16:00 +16°C° 0 mm 3 mps 695 mmHg 71%
    17:00 +15°C° 0 mm 2 mps 695 mmHg 75%
    18:00 +14°C° 0 mm 2 mps 694 mmHg 80%
    19:00 +14°C° 0 mm 2 mps 694 mmHg 81%
    20:00 +14°C° 0 mm 2 mps 695 mmHg 82%
    21:00 +14°C° 0 mm 2 mps 695 mmHg 83%
    22:00 +14°C° 0 mm 1 mps 694 mmHg 83%
    23:00 +14°C° 0 mm 1 mps 694 mmHg 83%
    Show more